Theta_e
317 315 316 317 315 315 316 316 316 316 316 316 314 311 311 311 308 307 307 307 310 311 308 307 307 307 307 307 308 308 307 308 311 312 311 310 309 312 314 314 316 313 310 311 310 311 312 311 312 312 315 316 316 316 313 318 326 328 336 333 322 322 321 321 323 319 320 321 317 316 316 318 316 314 313 312 316 317 316 320 320 323 327 326 326 321 323 333
317 316 315 316 315 315 315 315 316 316 316 315 313 310 310 310 308 307 307 306 309 311 309 307 306 307 307 308 308 307 308 308 311 312 312 311 311 314 317 315 315 313 311 311 310 311 313 313 311 313 318 317 314 317 316 314 322 334 334 326 328 334 322 319 322 317 317 317 316 316 315 317 316 315 314 314 316 316 316 317 320 326 330 329 327 324 328 333
317 316 314 315 315 315 315 315 315 316 316 315 313 311 309 310 308 307 307 306 307 310 309 307 306 307 307 307 308 308 309 309 310 311 310 311 313 317 318 316 313 312 311 311 313 312 314 314 310 314 319 316 315 317 320 316 318 329 328 321 331 338 322 317 319 316 316 316 317 316 313 315 315 314 313 316 317 315 318 318 319 324 334 337 329 326 330 331
317 316 314 314 314 314 315 315 315 315 315 315 314 312 309 309 308 307 306 306 306 308 308 307 306 306 307 307 308 309 310 309 310 311 310 311 314 317 316 314 313 312 312 311 315 315 314 312 309 315 318 316 317 316 319 319 316 319 325 327 327 325 319 317 317 317 316 314 316 316 314 314 314 313 312 316 317 315 318 318 319 321 337 341 328 327 330 330
317 316 315 314 314 314 315 314 315 315 315 315 313 312 310 309 308 307 306 305 305 306 307 307 306 306 307 307 308 310 310 308 310 314 312 311 314 317 314 312 314 313 311 312 315 314 312 310 310 317 318 314 316 316 315 316 315 315 318 321 321 318 316 316 317 317 314 312 316 316 315 314 313 313 314 317 318 319 318 317 319 319 336 341 330 327 328 328
317 316 315 314 314 314 314 314 314 314 314 314 313 311 309 309 308 307 306 306 305 305 305 306 307 307 307 307 309 311 310 309 312 316 315 313 315 318 315 312 314 314 312 313 313 313 313 312 312 317 318 315 315 314 314 312 314 318 315 315 317 317 316 315 317 316 313 314 317 316 314 314 314 314 315 316 317 320 317 317 315 313 327 333 328 326 328 328
317 315 316 315 314 314 314 314 314 314 314 314 313 311 309 309 307 306 306 306 305 305 305 305 307 307 308 308 309 313 313 312 313 316 316 314 317 318 316 312 314 314 313 312 313 315 316 314 315 318 319 316 314 312 313 313 315 322 318 314 316 316 316 316 316 317 316 317 317 314 313 315 318 315 312 313 316 318 315 311 307 309 321 326 326 327 327 328
316 316 316 315 313 314 313 313 313 314 314 314 313 311 310 309 307 307 306 306 305 305 305 305 307 307 310 310 312 314 314 313 314 315 315 314 316 316 314 313 313 313 313 313 314 316 315 314 314 315 317 315 314 313 313 313 316 321 317 316 316 315 317 316 316 318 317 317 314 313 315 316 316 313 312 315 318 318 314 311 310 316 325 327 329 329 326 326
316 316 316 314 313 313 313 313 313 314 313 314 313 311 311 309 307 307 306 306 305 304 305 306 307 308 312 312 313 313 312 313 314 314 314 313 314 314 314 314 313 314 314 314 315 314 313 315 315 313 315 314 313 314 314 313 315 318 317 317 317 315 316 315 315 318 319 317 314 315 316 316 314 312 315 320 320 316 316 320 323 328 333 330 330 329 326 326
316 315 315 314 313 313 313 312 313 313 313 313 312 311 312 311 308 307 306 306 305 305 306 307 307 309 313 313 310 310 312 315 313 312 313 313 314 314 315 314 313 314 314 315 314 313 313 315 314 313 315 314 313 313 313 313 313 318 319 318 318 317 316 316 315 316 318 316 315 316 316 316 314 313 317 319 316 312 316 325 324 331 340 331 329 327 324 325
316 315 315 314 314 313 312 312 312 312 312 313 312 312 313 312 309 307 306 306 305 305 306 307 307 309 314 313 310 310 315 316 313 313 313 313 314 314 315 314 314 315 315 316 314 313 315 313 311 313 315 314 314 315 313 313 314 317 320 317 319 321 317 315 316 315 316 315 314 316 316 315 314 315 318 315 315 313 315 323 322 328 334 327 327 327 324 324
316 315 315 314 314 313 312 312 311 311 311 312 312 312 313 312 310 308 307 306 305 304 306 308 308 311 313 311 310 312 316 317 313 313 313 313 314 315 316 315 315 316 316 316 315 315 315 314 313 314 315 314 315 316 314 315 315 317 319 318 320 326 321 314 316 316 315 315 314 316 313 315 316 317 317 314 315 315 314 319 323 325 324 321 323 324 323 323
316 315 315 315 314 313 313 312 312 311 311 311 312 312 313 312 309 308 307 306 305 305 307 308 309 313 312 309 311 314 317 316 313 313 314 315 316 316 316 316 316 317 316 316 316 315 315 316 315 315 315 316 316 313 314 315 315 316 318 320 321 323 322 315 314 316 315 315 315 313 312 319 322 318 315 313 314 315 315 319 321 323 321 319 318 320 322 320
316 316 315 314 314 314 313 313 313 312 311 311 311 312 312 311 310 309 307 306 305 305 308 309 311 314 311 309 313 315 317 315 313 313 314 315 316 315 315 315 316 315 316 315 315 315 316 315 313 314 313 316 315 311 318 319 318 317 313 323 325 317 320 321 316 317 314 314 315 313 313 321 324 320 316 313 314 314 317 321 320 319 318 316 317 317 318 316
316 316 315 314 314 313 313 313 313 312 311 311 310 311 312 311 310 308 306 307 306 306 309 310 313 314 310 311 314 316 317 314 313 313 314 315 315 315 315 315 315 314 315 314 315 315 315 314 315 317 314 313 314 315 322 322 325 324 314 322 324 313 323 326 317 317 316 314 315 314 317 321 320 321 317 313 315 315 316 320 319 317 316 314 315 315 315 313
316 316 315 314 314 313 313 312 312 312 311 310 309 310 311 310 310 308 308 307 307 309 311 313 315 312 308 311 314 315 315 313 313 314 315 315 314 315 314 314 313 314 315 314 315 315 313 316 316 315 315 315 317 321 324 321 326 328 318 321 322 315 321 321 315 317 317 315 315 314 317 322 319 319 318 313 315 316 317 320 320 320 318 315 313 312 313 312
316 316 315 314 314 313 313 312 312 311 311 310 309 310 310 310 310 309 309 309 310 312 312 315 316 310 307 310 314 316 314 313 313 314 316 315 314 314 313 314 313 313 315 314 315 314 313 317 314 313 318 318 318 322 320 317 319 322 319 320 322 319 318 319 319 317 315 316 316 315 317 321 320 321 322 316 312 314 317 321 322 322 320 317 314 313 313 313
316 315 315 314 314 313 313 313 312 311 311 309 308 310 311 313 312 311 312 312 313 311 310 312 312 310 309 310 315 316 313 312 314 315 316 315 315 314 314 315 312 312 316 316 315 315 315 318 318 320 321 316 317 319 319 319 318 318 319 318 318 317 315 318 321 316 314 316 317 317 317 320 321 318 319 317 311 313 317 317 317 317 317 316 315 314 314 313
316 315 315 314 314 313 313 312 311 311 310 309 310 312 312 313 313 313 314 313 311 307 308 311 309 311 312 311 315 315 313 313 314 315 315 315 314 314 315 314 315 317 317 318 315 316 320 321 319 320 319 317 317 317 321 325 322 319 323 325 324 321 318 320 322 315 313 316 318 318 318 320 320 317 318 317 311 312 315 315 314 314 314 314 313 313 313 313
316 315 315 314 313 313 313 312 311 310 309 310 312 312 311 312 313 314 314 314 313 308 310 312 310 313 314 314 316 315 313 313 313 314 314 314 315 316 315 315 320 320 318 321 318 315 321 321 317 319 318 318 319 317 318 320 320 320 323 327 327 322 320 319 318 316 314 316 319 318 317 319 318 317 317 314 311 312 314 315 314 313 313 313 313 313 312 313
316 315 314 314 313 313 312 311 310 310 309 311 313 311 311 312 312 314 314 314 311 307 311 312 309 314 315 314 315 312 313 314 312 314 314 314 315 315 316 317 319 318 318 323 320 316 319 319 318 319 317 316 316 316 317 317 318 320 322 324 322 319 320 316 314 317 316 315 320 319 318 319 318 317 316 313 313 314 316 316 315 314 312 312 312 312 312 312
316 315 314 313 313 312 311 310 310 310 310 311 312 312 312 311 309 311 311 310 307 306 311 311 310 316 315 312 314 312 315 317 314 315 315 314 315 315 317 319 319 319 318 319 319 317 319 321 320 316 314 314 313 314 319 322 324 325 322 321 320 319 320 317 316 318 316 315 322 325 323 319 318 318 317 315 316 314 314 315 314 314 313 312 311 310 311 311
316 315 314 313 312 311 310 310 309 310 310 311 311 311 312 312 311 309 308 308 307 308 313 313 315 321 317 313 314 313 315 316 315 316 314 314 316 316 318 319 318 319 317 318 320 319 319 321 320 315 313 315 314 315 320 322 324 326 323 322 321 320 320 319 317 318 316 314 318 323 321 317 317 320 320 316 314 314 314 313 313 312 312 311 311 311 311 312
315 314 313 312 311 311 310 309 309 310 310 311 311 311 312 313 312 310 309 310 308 309 312 311 315 322 319 314 314 314 315 315 315 315 313 315 317 315 317 318 319 319 317 319 320 319 320 318 315 315 315 318 318 315 318 319 318 320 328 332 327 323 323 319 317 319 318 316 317 319 317 322 328 329 331 324 315 315 317 317 316 314 312 311 311 312 312 312
315 314 312 311 310 310 309 309 310 310 310 310 311 312 312 314 312 311 312 311 309 309 309 309 313 318 317 314 314 315 314 314 316 315 312 314 315 315 315 316 318 319 317 318 317 318 319 314 312 317 317 321 322 317 319 322 318 317 325 332 329 329 328 322 320 322 322 318 316 313 314 330 337 330 330 325 316 316 317 317 317 315 314 317 316 314 313 313
314 313 311 311 310 310 309 310 310 310 311 310 311 311 313 315 312 310 313 314 312 311 309 309 312 313 314 315 316 316 314 314 314 313 313 313 313 314 314 314 315 318 317 317 317 318 317 313 316 321 320 320 320 319 319 320 320 317 318 322 328 332 330 326 321 318 321 317 311 312 316 323 325 319 319 320 317 321 320 318 321 318 313 319 322 321 321 318
314 312 311 310 309 309 310 311 310 310 312 311 310 311 313 315 312 309 313 314 311 311 309 308 309 310 313 314 314 314 315 316 313 312 314 313 312 312 315 316 313 316 316 316 318 317 316 317 318 322 324 320 319 320 317 318 322 319 317 322 329 332 330 331 326 321 323 318 316 323 324 318 318 316 318 319 320 325 325 324 330 323 313 316 324 324 326 325
313 311 310 310 309 310 310 310 311 310 311 310 311 313 314 314 311 310 314 312 310 310 309 308 308 311 313 311 313 314 314 315 315 314 312 312 312 312 317 319 316 318 315 315 319 316 316 322 321 322 324 322 322 323 318 319 325 320 316 321 326 328 332 335 335 332 325 315 318 327 319 315 324 326 322 319 317 321 325 322 323 320 313 315 320 321 322 322
312 311 309 310 310 310 310 311 310 310 310 310 313 314 313 311 309 310 312 310 309 310 308 308 308 312 315 311 312 315 314 315 316 315 312 312 312 311 315 317 317 318 314 316 323 318 315 318 319 321 323 322 323 321 316 321 324 318 314 319 321 325 330 332 334 330 320 315 322 326 316 313 322 329 326 317 315 321 324 321 318 317 317 318 320 322 321 322
312 311 309 309 310 310 312 312 310 310 311 312 314 313 312 311 310 309 309 309 311 310 308 308 309 313 316 313 312 314 316 317 317 316 315 315 314 312 312 312 316 320 319 323 327 320 315 313 314 317 319 321 320 317 316 319 318 315 320 323 322 326 330 332 334 324 314 319 326 322 317 312 314 326 329 317 316 322 321 323 324 323 325 325 329 332 328 330
311 310 308 309 310 310 313 313 310 311 313 314 314 311 310 314 314 310 308 311 315 312 308 309 310 313 315 314 314 314 317 318 316 315 316 316 316 316 313 312 317 321 322 324 323 320 317 315 316 316 315 318 321 320 317 316 316 320 328 327 321 325 327 329 333 323 316 325 323 317 316 314 313 324 329 322 320 319 318 322 325 325 326 326 331 332 329 331
310 309 309 309 311 311 313 314 311 311 313 313 312 310 310 313 313 310 310 311 313 313 312 311 310 314 315 313 314 315 318 319 316 315 318 319 317 316 316 316 319 319 317 320 321 320 320 319 318 316 314 317 325 326 319 319 323 323 326 327 322 324 321 321 328 323 321 322 315 316 319 314 315 320 322 325 323 319 318 319 321 323 324 328 334 335 334 333
310 309 310 310 311 311 312 314 312 312 313 312 311 312 315 314 311 311 313 312 312 313 314 313 312 314 314 313 315 316 317 317 316 315 317 319 318 315 317 319 320 320 320 321 322 320 322 323 319 317 317 316 320 324 320 321 323 319 322 325 323 323 319 320 325 319 318 318 313 315 318 316 320 318 316 320 317 317 316 316 320 320 320 325 331 335 338 336
310 310 311 311 311 311 312 315 314 313 313 311 309 312 315 314 311 311 311 311 315 315 315 315 314 313 313 313 314 316 315 315 315 316 316 317 317 317 318 315 315 324 326 322 321 320 319 322 321 320 320 318 317 321 324 325 321 318 320 319 320 327 325 323 324 320 320 321 316 313 316 324 325 315 314 317 315 316 317 319 319 318 319 321 322 327 334 337
312 311 312 312 312 312 313 315 315 314 312 310 310 311 311 311 312 312 309 312 318 318 315 314 313 313 313 312 313 314 315 316 315 316 317 317 317 317 316 313 314 323 324 317 317 318 316 318 320 318 316 318 318 319 322 323 320 318 316 314 317 324 325 320 316 318 319 319 319 316 320 329 323 315 316 316 316 318 320 324 323 321 323 321 323 328 333 341
313 312 313 313 312 313 313 315 315 313 311 311 311 311 310 310 314 314 311 314 319 315 313 313 314 314 312 312 314 314 314 317 317 316 316 316 316 316 315 314 315 317 317 317 319 318 316 317 317 316 315 317 318 317 319 321 319 318 316 319 319 317 324 322 312 312 314 313 318 318 319 324 317 314 318 316 318 321 322 324 322 322 324 323 327 327 329 342
314 313 314 313 313 313 313 315 314 312 312 312 310 312 311 307 312 316 315 317 316 313 314 314 314 315 313 312 316 314 314 318 317 316 317 316 316 317 316 316 315 313 313 317 319 318 321 320 316 316 317 315 313 316 319 318 317 320 321 322 316 311 321 324 316 320 319 315 320 318 316 320 316 316 319 316 316 319 323 324 321 321 323 325 326 318 322 339
313 313 313 314 314 314 313 314 313 313 316 313 311 315 314 308 312 318 319 315 313 314 317 316 314 314 313 313 315 313 314 317 316 316 316 314 316 317 315 315 315 313 312 313 313 315 319 319 315 315 318 316 314 317 319 316 313 320 323 319 318 319 322 319 315 322 320 316 324 323 315 314 315 317 319 315 316 320 321 321 322 323 321 325 325 316 321 334
311 312 313 312 312 313 314 314 313 315 317 313 311 314 316 314 314 317 317 315 316 316 316 318 317 314 313 313 314 313 313 315 316 316 316 314 316 316 314 314 314 313 312 312 312 313 315 315 315 314 314 316 317 318 320 319 315 316 315 313 318 324 324 320 316 318 318 316 321 323 319 316 317 318 317 314 318 322 320 319 321 322 320 323 323 317 322 329
310 314 313 311 311 312 313 313 314 316 315 313 311 311 314 316 316 316 316 315 317 316 315 320 319 314 314 314 313 313 314 315 315 315 315 313 314 314 312 313 314 314 313 311 311 314 313 310 314 315 312 316 320 319 318 320 318 318 317 316 318 318 318 321 317 316 320 321 321 320 317 320 324 320 316 314 316 321 324 321 322 323 322 320 315 315 323 329
310 312 312 311 312 313 313 314 315 316 314 313 314 314 315 316 316 317 317 315 316 314 316 322 319 315 316 314 314 314 314 316 315 315 315 312 312 314 312 313 315 314 312 310 310 315 313 311 318 320 316 318 321 316 315 319 318 317 317 317 318 317 317 319 316 315 317 318 320 319 313 319 328 321 317 317 317 318 320 319 321 322 317 315 314 317 323 330
309 310 310 311 313 312 314 313 310 312 314 312 313 314 314 315 316 316 315 315 317 315 316 321 321 319 317 313 314 315 314 316 315 315 316 313 312 314 313 313 316 314 313 313 311 315 317 318 323 324 321 321 318 312 313 317 317 316 317 317 316 316 318 318 317 318 317 313 316 319 316 315 319 316 316 318 315 314 314 312 316 318 314 317 323 325 326 329
310 311 310 312 313 312 313 311 307 309 312 310 311 312 312 314 316 315 314 315 316 316 317 320 319 318 318 315 314 315 314 315 315 314 316 314 312 316 316 314 315 314 313 314 312 313 317 318 319 321 323 323 320 316 314 314 315 316 318 318 317 318 319 319 318 319 319 317 316 317 317 315 317 319 318 318 318 319 319 314 313 316 319 322 326 328 327 328
309 310 310 310 312 312 312 311 309 310 309 309 311 313 312 314 315 315 316 317 317 318 319 319 316 315 318 318 316 316 314 314 315 314 316 316 314 315 317 315 313 313 312 313 314 312 313 316 317 318 320 320 320 321 319 315 317 319 319 318 318 321 320 317 316 315 317 322 321 317 316 316 320 323 321 322 326 325 323 319 315 317 321 323 325 326 326 327
308 308 308 308 309 310 310 309 309 309 308 309 312 313 313 313 313 314 317 318 318 319 318 317 316 317 319 319 318 317 314 314 317 314 314 317 316 315 317 317 313 312 313 314 313 312 314 317 317 316 315 314 315 317 319 319 318 318 321 320 318 320 319 316 317 317 317 322 321 316 315 314 316 318 316 319 324 320 316 317 316 319 324 325 325 325 325 328
308 308 307 307 307 309 311 310 310 309 309 310 311 311 313 313 312 313 315 316 317 318 317 316 316 318 318 317 319 319 315 315 318 316 315 317 316 315 315 316 315 313 317 317 314 316 322 319 314 313 313 312 311 314 320 323 321 318 321 321 317 318 318 317 319 319 316 318 317 315 315 314 314 316 318 321 323 322 320 319 319 321 324 326 326 326 327 330
306 307 308 309 309 309 310 310 311 309 309 311 311 310 312 313 313 313 313 314 315 318 318 316 316 318 318 318 320 320 318 317 317 317 316 316 316 316 313 314 315 315 318 318 314 318 323 318 314 314 313 312 312 314 319 322 320 319 319 318 317 317 317 317 318 317 315 316 316 314 314 314 313 313 320 324 325 327 325 324 325 325 325 327 327 327 331 333
303 305 306 307 309 310 310 310 311 310 309 311 311 310 311 312 313 314 313 313 314 317 317 317 317 318 319 320 320 319 319 318 317 318 318 318 317 317 314 314 314 314 316 316 313 317 320 317 317 316 313 313 312 314 319 320 318 319 318 317 317 316 316 317 316 316 316 316 315 315 315 316 313 312 315 318 319 324 323 321 322 323 324 326 325 327 331 331
301 303 303 303 306 309 310 310 311 310 310 310 311 310 311 311 312 313 312 313 314 315 316 317 317 316 318 319 319 320 319 318 319 318 319 320 318 316 318 318 314 314 316 315 314 316 319 321 321 316 314 315 313 315 321 321 317 318 318 317 317 316 316 317 316 315 316 315 315 315 316 316 313 312 313 313 314 318 318 316 316 319 321 325 326 327 327 325
301 302 302 303 305 307 308 310 311 311 310 310 311 311 311 311 311 312 313 313 313 314 314 315 315 315 316 316 318 319 318 318 321 319 318 319 318 318 321 319 314 314 317 316 314 313 315 321 323 316 315 317 314 315 319 319 317 317 318 317 316 316 315 315 316 316 316 316 316 315 316 315 312 312 314 314 313 313 313 313 315 316 318 322 323 322 322 324
299 300 300 303 305 305 306 309 310 312 311 310 311 311 311 310 311 312 313 312 313 314 314 314 314 314 314 315 316 317 316 317 320 319 319 321 320 320 320 316 316 319 318 316 316 315 315 320 321 318 317 318 316 316 317 316 315 315 316 317 316 315 315 314 315 315 316 316 316 316 316 315 313 315 315 314 313 313 314 315 315 315 318 320 320 320 321 323
298 298 300 302 305 305 305 307 310 312 312 311 310 310 311 311 311 312 313 312 312 314 314 313 312 313 314 314 315 315 315 315 317 318 319 319 318 318 318 317 318 321 319 316 316 317 317 318 320 320 319 318 318 319 317 315 315 315 315 315 315 314 314 314 314 314 314 315 316 316 316 314 314 317 316 315 315 315 314 314 313 314 318 321 320 320 319 320
Wind_Speed
17 18 17 15 14 14 13 12 10 9 9 9 10 12 11 10 13 14 14 14 12 11 11 11 12 12 13 12 10 9 6 5 6 7 8 9 11 9 8 11 9 6 6 5 5 5 3 2 2 2 3 3 3 1 2 2 3 4 3 3 2 3 4 5 7 7 4 4 6 5 6 8 5 3 1 2 5 3 2 3 2 3 2 2 5 3 16 31
18 18 17 15 15 14 13 12 10 10 9 8 10 12 12 11 12 13 13 13 12 11 10 11 11 12 12 11 9 7 5 6 5 7 12 11 9 10 9 10 9 6 5 4 4 5 5 2 2 4 4 2 2 2 1 1 3 4 3 3 3 6 4 5 7 6 3 2 5 5 4 6 7 5 3 2 1 1 2 2 5 5 4 4 3 8 23 29
18 18 18 16 15 13 13 12 11 11 8 7 9 11 12 11 12 13 12 13 12 10 10 10 11 11 11 11 8 6 5 3 2 7 14 13 10 10 9 10 9 6 5 4 5 5 5 3 3 5 5 3 1 2 2 1 1 2 4 2 5 6 4 4 5 6 4 3 6 4 3 3 4 4 2 4 4 2 5 5 1 3 6 1 2 11 21 24
19 19 18 16 15 14 13 13 12 11 9 8 9 11 13 12 11 12 12 12 11 10 10 9 10 10 10 9 7 6 3 1 2 6 11 13 12 10 10 10 8 6 5 5 5 4 4 5 5 5 4 2 3 3 2 1 1 2 4 4 6 4 2 3 6 6 4 4 6 5 4 2 2 2 2 6 6 3 6 7 7 9 8 6 4 9 17 20
20 19 17 15 15 14 13 13 12 11 9 8 9 10 12 11 11 12 11 11 11 10 9 9 9 9 9 8 7 7 4 2 4 6 9 13 13 12 11 11 8 6 5 5 4 4 4 5 6 5 4 2 2 3 1 2 2 2 1 4 5 3 1 2 5 3 2 5 5 6 6 4 2 2 3 9 7 6 7 8 11 10 10 12 11 12 14 15
21 19 16 14 14 15 14 14 12 11 10 8 8 10 10 10 11 11 11 11 10 9 9 8 8 8 8 8 7 7 5 1 2 4 8 13 14 13 12 11 9 6 5 6 4 5 4 4 5 3 3 2 2 2 2 2 2 2 2 2 4 4 1 1 1 2 3 8 7 6 4 3 4 1 3 8 8 8 6 7 9 8 10 15 15 14 12 12
21 19 17 14 15 16 15 14 13 11 10 8 8 10 10 10 10 11 11 11 10 9 8 8 7 8 8 7 7 3 2 3 2 3 7 10 13 13 12 11 9 6 5 6 5 4 4 5 4 4 4 3 3 2 1 1 5 4 2 1 1 3 2 2 3 2 3 7 5 4 3 4 5 3 1 5 10 8 5 4 4 8 12 13 12 12 13 14
21 19 18 14 15 17 16 14 13 11 11 9 8 9 10 10 10 10 11 11 9 8 8 8 8 8 9 8 6 2 1 4 2 4 6 9 12 13 13 11 9 7 6 7 6 6 5 5 5 4 4 2 4 3 1 3 5 3 3 2 2 0 3 4 4 5 5 3 1 5 4 3 5 3 1 7 12 8 4 1 3 8 11 11 11 12 12 12
21 20 18 14 16 18 16 14 13 12 11 9 8 10 9 9 10 10 11 10 9 8 7 8 8 8 10 7 5 3 3 4 3 5 7 9 11 12 12 10 9 8 7 6 5 7 5 4 5 4 4 3 4 4 2 3 1 2 3 2 3 2 5 5 4 5 5 2 2 5 1 5 1 1 3 9 10 5 3 6 5 8 9 9 10 11 12 11
20 19 17 15 16 17 16 15 13 11 11 9 8 10 8 8 10 10 10 10 9 8 7 8 9 9 10 4 5 3 4 3 6 8 8 9 10 12 12 10 10 9 7 5 5 7 5 5 6 5 5 2 3 3 2 3 3 3 5 5 4 2 3 3 2 4 4 1 1 4 2 6 3 2 4 7 6 2 4 6 5 8 9 10 9 10 13 13
20 18 17 16 15 15 15 14 13 11 10 9 8 9 8 8 10 10 10 9 9 8 7 8 9 10 8 4 5 4 3 4 9 8 9 10 9 11 11 9 10 9 7 4 6 7 4 8 9 5 2 2 3 2 1 2 3 5 6 5 6 6 2 3 3 2 3 1 0 6 3 5 4 1 5 3 6 2 5 6 5 7 7 8 9 8 10 13
20 19 18 16 15 14 13 12 11 10 9 8 8 7 7 8 10 10 9 9 9 8 8 8 10 10 6 3 3 5 3 6 9 9 9 9 9 9 8 9 8 8 8 5 6 7 5 9 11 6 1 3 5 2 2 2 4 4 6 4 6 8 4 3 1 2 2 1 2 4 1 4 2 7 7 0 5 4 1 5 5 7 7 6 7 6 7 13
21 19 18 17 15 13 12 11 10 8 9 9 8 7 6 8 9 9 8 8 9 9 9 9 10 10 5 1 4 5 5 8 10 9 9 9 8 9 8 10 8 5 8 7 8 8 6 8 9 6 2 5 3 2 3 4 3 2 4 5 2 7 4 4 2 1 1 1 3 3 1 6 7 11 7 2 4 4 1 7 6 6 6 5 6 6 7 11
21 20 19 17 15 14 11 10 9 8 8 8 8 7 6 7 8 8 7 8 9 9 9 9 10 8 3 2 4 5 7 9 10 9 9 9 9 9 8 9 7 5 7 7 8 8 5 8 9 6 3 4 2 2 5 5 4 2 3 3 2 1 4 6 2 2 3 1 2 6 2 6 8 11 8 6 2 4 6 8 7 7 6 6 5 6 7 10
22 21 19 17 15 14 12 10 9 8 8 8 9 8 6 6 7 7 8 9 9 10 9 8 9 7 2 3 2 4 7 7 9 9 8 9 9 7 7 7 6 6 7 7 8 8 6 9 8 5 1 2 4 5 4 4 4 4 2 1 3 2 5 8 2 4 5 1 5 7 2 6 8 10 8 5 2 6 8 7 7 7 7 7 6 6 7 9
23 22 19 17 16 14 12 10 8 8 8 7 8 8 6 6 7 7 9 9 9 10 8 5 7 6 2 2 1 2 6 6 8 9 8 10 8 5 7 9 7 8 8 7 8 8 6 6 4 3 3 3 5 6 4 3 3 4 3 2 2 2 3 5 2 2 2 0 3 3 2 4 5 8 7 4 4 4 3 7 7 7 8 8 6 7 7 8
23 22 19 17 16 14 13 11 8 8 8 8 9 8 5 5 6 7 8 9 10 9 6 3 6 4 1 0 1 1 4 6 9 10 8 8 7 7 9 7 5 6 7 7 6 5 5 4 2 0 3 3 3 6 5 1 3 3 2 2 3 3 2 2 3 3 2 2 1 1 2 6 7 8 10 6 4 5 5 7 8 7 7 7 6 7 7 8
25 22 20 18 16 15 13 11 9 9 9 9 8 8 7 8 7 7 11 13 12 8 5 1 4 3 3 3 3 3 4 8 10 9 8 6 7 8 7 4 5 6 6 5 3 2 3 4 2 1 3 3 2 5 5 5 5 5 3 3 2 2 3 3 3 2 2 2 2 0 2 10 12 10 11 9 2 3 8 8 8 8 8 8 7 7 8 9
26 23 21 19 17 15 13 12 10 9 10 10 12 13 10 9 8 7 9 11 8 4 2 2 4 4 4 5 3 2 5 10 10 8 7 6 7 7 5 5 6 6 5 2 1 1 2 3 3 3 2 3 5 6 7 7 8 9 6 5 5 3 3 5 4 4 1 3 3 5 5 9 11 10 11 11 3 2 8 8 7 9 8 9 8 8 9 9
26 24 22 19 17 15 13 12 10 11 12 15 18 14 7 5 5 3 1 2 3 4 2 3 4 3 1 1 2 7 8 8 6 5 6 6 7 8 5 5 6 6 3 4 2 1 3 4 3 5 7 9 9 7 6 5 6 7 6 5 4 4 3 4 3 5 0 3 4 4 5 9 11 12 12 11 6 4 9 10 10 10 9 10 10 10 10 11
27 25 23 20 17 14 13 11 10 13 15 19 18 9 3 5 4 4 2 2 4 4 1 4 2 1 1 1 5 8 6 4 1 2 6 5 6 8 1 3 5 3 1 3 2 1 4 5 8 7 8 7 6 7 7 7 6 6 6 5 2 3 3 2 1 5 3 1 4 2 3 10 11 12 13 10 8 9 11 12 13 13 11 10 10 12 11 9
28 25 23 21 17 14 12 11 11 14 16 17 13 3 3 3 3 8 8 1 5 4 1 2 1 2 2 2 6 3 4 3 1 2 4 3 4 5 1 4 6 4 1 2 3 2 2 4 9 6 4 6 6 5 7 7 6 5 4 6 3 2 2 3 3 4 5 1 4 5 5 10 10 11 12 12 11 10 10 11 12 12 11 11 10 10 10 9
28 25 23 21 17 14 12 11 13 16 17 16 11 5 4 2 4 9 7 4 2 1 2 2 2 1 2 1 5 2 3 5 5 4 4 5 3 3 4 5 5 4 2 4 5 5 3 6 7 5 7 8 5 3 7 7 4 4 4 5 3 2 1 1 3 4 4 2 1 4 6 9 7 6 11 12 10 8 9 10 11 10 11 13 10 8 9 10
28 25 23 21 17 14 12 12 14 16 18 15 13 12 6 4 7 5 3 4 2 1 1 2 2 3 3 2 5 5 2 2 5 5 6 7 4 2 5 5 5 5 3 6 8 7 5 5 2 8 6 7 7 3 6 6 1 0 3 5 4 3 4 3 2 2 3 4 3 4 6 7 4 4 8 7 4 6 6 7 9 10 10 11 9 8 10 10
27 25 24 22 17 14 13 15 15 17 17 13 16 15 8 6 6 2 3 3 1 1 2 2 1 4 5 4 5 6 3 1 2 4 6 8 6 4 3 2 4 5 4 5 7 6 6 4 4 9 5 6 8 4 5 7 4 2 3 6 7 7 6 3 2 4 4 4 4 4 3 6 5 5 8 6 6 7 6 6 11 11 7 8 8 9 9 9
27 25 25 22 18 17 15 12 14 16 13 12 18 17 7 6 6 3 3 4 2 1 1 3 2 5 8 4 4 4 3 2 2 1 5 7 5 4 3 1 2 3 5 5 4 3 2 1 3 7 6 6 6 3 5 6 6 2 4 5 6 7 8 6 4 4 1 3 3 3 2 5 7 6 8 6 7 10 10 9 13 12 7 6 7 8 8 8
28 25 25 22 20 22 15 8 14 16 8 10 18 16 8 8 7 4 4 5 3 3 4 2 1 6 9 4 5 7 3 4 1 3 2 4 1 3 4 4 2 2 3 4 2 2 3 3 5 6 6 6 5 3 5 7 8 3 4 6 8 8 8 7 6 4 2 3 4 4 4 2 7 6 6 4 6 10 11 11 12 10 6 5 6 8 8 8
27 26 24 21 24 25 12 8 18 17 6 6 14 15 10 10 7 2 4 2 3 2 4 2 1 6 4 2 5 5 2 3 4 2 1 3 1 4 3 5 5 5 2 5 4 4 2 4 4 6 6 4 4 4 5 8 6 4 3 6 7 7 7 5 6 4 1 2 4 4 2 2 6 7 5 4 4 8 10 12 12 9 8 7 8 8 8 8
26 26 24 23 26 22 9 8 19 18 10 8 14 15 12 11 6 3 3 3 1 2 2 2 3 3 2 3 3 3 1 1 2 3 2 3 1 4 3 5 6 7 2 4 6 3 1 4 6 6 6 5 4 1 3 4 2 3 6 8 6 6 6 5 5 4 3 2 4 5 3 2 5 7 5 2 3 7 10 10 9 9 9 8 8 8 7 6
26 26 25 26 27 22 9 8 18 17 9 10 15 16 13 8 4 4 3 4 2 1 0 2 3 3 6 7 1 2 2 1 1 1 2 1 2 5 2 2 6 7 3 6 3 1 2 2 2 3 4 5 4 3 1 1 4 7 7 7 7 6 5 4 3 4 3 3 6 6 3 2 4 7 5 4 5 6 5 7 8 8 9 7 6 6 6 5
25 26 27 28 28 23 10 5 17 15 8 13 18 14 10 4 2 5 5 3 2 2 1 1 2 4 10 12 5 1 3 2 1 4 3 1 2 3 2 2 4 5 3 3 2 4 4 2 1 1 1 4 6 5 4 4 4 6 5 5 5 3 4 4 4 3 1 5 6 5 2 3 4 7 5 6 7 6 5 6 8 9 9 8 5 4 4 4
25 24 27 28 24 22 9 3 16 16 8 16 16 8 5 4 2 5 3 2 2 3 4 4 3 5 10 10 5 4 4 2 1 4 5 4 3 3 3 4 4 3 1 3 1 3 2 0 2 3 1 4 6 5 5 5 5 5 5 6 5 2 3 2 3 0 3 6 3 3 2 3 6 8 7 10 10 8 8 7 8 8 8 8 6 6 5 4
25 24 25 25 22 22 12 4 14 15 11 17 11 4 5 4 6 8 4 3 2 2 4 4 3 6 10 8 4 4 3 2 3 2 2 3 4 5 3 3 6 5 3 4 4 2 1 4 2 1 2 2 6 6 4 1 0 4 5 5 4 3 2 2 4 2 4 4 3 3 2 3 5 5 8 13 10 5 6 7 8 7 8 8 7 6 6 5
25 25 25 23 21 20 12 5 11 14 13 14 6 4 6 5 7 9 7 4 1 2 2 3 6 7 8 6 4 5 3 1 4 4 2 4 5 6 5 5 4 5 4 4 3 6 4 4 4 4 2 3 5 5 6 7 3 3 4 5 5 5 4 4 4 3 4 3 3 3 1 3 3 3 6 10 8 6 6 7 6 6 7 7 7 7 7 6
26 25 24 21 20 18 10 5 11 15 13 9 4 5 9 8 6 7 7 5 1 2 3 3 7 8 5 1 0 5 4 2 4 4 4 5 6 7 6 6 6 4 5 6 3 3 4 5 5 2 2 6 6 3 5 7 2 2 2 5 3 5 5 2 3 5 3 2 3 2 4 5 4 6 9 7 7 8 7 6 5 6 6 5 5 6 6 5
26 23 20 17 18 18 12 6 9 14 11 6 5 7 8 6 3 4 5 5 4 6 7 4 4 5 5 2 1 6 2 2 5 4 4 4 3 6 6 5 7 6 6 6 3 2 3 3 5 4 2 3 3 2 3 4 3 2 2 3 5 4 7 5 2 1 3 1 4 1 5 6 4 7 9 6 8 9 7 7 6 7 7 6 6 4 4 5
21 17 14 13 16 18 15 8 8 11 7 5 7 9 4 2 2 3 3 4 5 8 9 4 2 4 6 4 5 7 3 2 4 4 4 3 2 6 7 4 5 9 8 5 2 4 5 1 4 2 1 2 1 2 3 3 3 5 3 5 4 2 4 4 2 3 4 3 4 1 5 5 2 5 6 4 6 9 9 8 7 7 7 7 6 2 4 7
13 9 6 8 15 18 16 11 8 7 4 3 8 8 2 1 1 1 1 3 6 7 6 5 3 3 6 6 5 7 6 4 5 4 4 3 4 6 9 5 4 9 9 4 1 2 5 2 4 2 2 4 4 3 1 4 3 5 4 3 4 3 1 2 2 1 1 3 4 4 5 4 5 6 4 1 7 9 10 9 8 8 7 8 6 2 4 7
8 4 3 4 9 12 17 14 6 4 4 5 10 8 1 1 1 1 0 2 5 5 5 5 2 2 5 6 6 6 6 6 7 5 3 4 5 5 9 7 3 8 10 5 3 3 4 4 3 2 1 2 4 2 5 1 4 4 2 3 3 2 4 3 3 4 3 3 3 4 4 3 7 7 5 8 9 9 10 9 8 9 8 8 6 0 2 6
4 2 1 3 6 9 17 15 4 3 4 5 7 4 1 1 1 3 2 1 2 2 3 5 3 4 5 4 5 5 5 5 7 6 4 5 5 5 7 8 4 7 7 5 4 3 2 3 4 3 3 1 2 3 6 7 4 2 3 4 2 1 2 2 1 2 4 4 3 3 5 6 6 4 8 11 9 9 10 9 9 10 9 7 3 1 4 6
3 2 0 3 8 13 16 10 2 4 5 3 1 1 0 1 1 2 4 1 2 1 2 4 5 5 6 5 4 5 5 4 6 5 4 6 6 5 6 7 7 7 6 4 3 4 3 3 4 2 0 3 4 3 3 7 7 7 6 7 7 5 4 3 3 1 3 3 4 3 5 8 6 4 7 8 8 9 9 8 8 9 8 7 5 4 6 5
3 2 1 4 13 15 10 3 1 2 3 3 1 2 1 2 2 1 3 3 3 1 2 3 3 3 5 5 4 6 7 5 6 6 5 7 9 7 5 5 10 11 8 5 5 4 3 4 4 3 4 6 5 4 1 3 2 3 4 5 6 6 6 6 5 4 2 1 2 4 2 8 5 4 6 6 6 6 5 5 7 7 7 7 7 6 5 5
3 1 1 7 17 14 6 1 0 0 1 2 0 1 1 1 1 1 1 2 2 1 2 2 2 2 2 3 4 7 8 5 6 8 6 7 8 6 5 7 10 11 9 6 5 3 2 4 4 1 3 3 5 5 3 2 2 2 4 3 5 4 4 5 5 4 4 3 3 3 3 8 4 1 3 4 5 6 5 4 7 7 6 4 4 4 4 6
2 1 1 7 16 13 4 2 2 2 2 1 2 1 1 1 2 2 1 0 1 2 2 1 1 1 2 3 4 7 9 5 6 8 5 4 5 3 4 9 10 9 7 5 5 5 4 3 4 3 1 3 4 4 3 1 2 3 3 3 4 4 6 5 2 2 1 5 7 5 7 8 5 5 3 3 6 6 5 4 6 5 1 1 1 4 6 3
2 1 1 2 7 8 4 2 3 3 3 3 4 4 2 1 1 1 2 1 1 2 3 1 1 2 2 2 3 4 7 3 3 6 4 2 3 3 1 5 9 9 4 1 3 6 6 4 5 6 6 6 6 5 5 4 3 1 2 4 5 7 9 5 2 3 4 7 7 6 9 8 3 4 3 3 5 3 1 2 4 3 3 3 5 6 5 1
2 1 1 0 0 2 3 3 4 3 3 4 3 4 7 6 2 1 2 2 1 2 3 1 1 3 3 3 4 3 5 1 2 3 5 4 3 2 3 1 5 5 2 4 6 6 3 3 5 9 11 12 11 8 5 9 7 6 9 10 9 9 11 8 4 5 9 8 5 9 12 12 8 3 3 6 5 4 3 2 3 4 5 6 6 6 6 3
1 1 3 2 0 1 2 3 5 4 4 5 4 3 8 8 3 1 1 2 2 3 3 2 1 2 2 4 4 3 4 2 2 2 4 4 2 2 2 1 1 1 2 3 6 5 4 3 8 9 12 12 10 7 6 10 11 14 16 14 12 12 13 12 10 12 12 7 10 14 11 12 16 9 6 9 7 5 6 5 5 6 6 6 5 5 7 6
1 0 1 1 0 2 3 4 7 6 5 6 4 4 7 7 5 3 2 1 1 1 2 1 2 4 5 5 5 3 3 2 2 2 2 1 1 1 2 1 2 1 1 2 2 4 5 5 7 8 11 14 9 5 7 9 10 12 15 16 15 15 15 15 17 18 14 10 14 15 10 13 18 13 10 11 9 8 8 6 6 5 5 6 6 6 6 6
1 1 2 2 1 2 2 5 9 8 8 8 5 4 8 9 8 5 2 3 1 2 4 5 6 6 6 4 4 4 5 4 4 4 3 2 2 2 2 0 1 1 3 3 1 2 4 4 6 8 9 14 12 7 9 10 9 8 12 14 15 16 18 20 21 22 20 16 15 16 13 15 17 12 10 11 10 9 6 2 4 5 5 6 6 7 8 7
1 0 1 2 1 0 1 4 9 8 6 8 6 5 7 10 11 6 3 4 5 3 5 10 8 6 6 6 4 3 6 6 5 4 5 4 2 2 2 3 2 2 3 3 2 1 3 4 4 6 5 9 11 8 9 10 9 9 10 10 11 13 17 20 20 18 16 14 15 17 16 16 14 9 8 9 7 6 6 6 7 8 7 8 9 10 10 7
2 1 1 2 1 0 0 2 5 6 6 7 6 5 7 10 11 8 3 4 7 6 8 12 8 4 3 6 7 9 9 5 5 5 6 5 4 3 1 2 4 3 3 1 1 1 3 3 0 4 4 8 8 7 8 7 5 6 8 10 12 13 14 15 14 13 13 13 15 15 13 16 13 6 6 9 6 6 8 10 9 9 9 10 11 11 9 7
2 2 1 3 1 1 2 1 3 5 5 6 7 6 7 9 9 8 4 3 5 8 9 11 8 5 3 7 11 12 8 5 5 5 5 3 3 3 3 3 4 4 3 2 1 1 3 3 1 3 4 8 6 5 8 5 2 5 10 15 17 15 13 11 10 13 16 15 12 12 13 16 9 5 6 8 6 8 11 10 9 9 9 10 11 10 8 7
Wind_Direction
184 184 183 182 183 182 181 186 189 183 179 178 179 180 178 177 184 190 194 199 206 208 206 204 200 200 202 204 210 218 232 230 224 206 207 231 228 225 215 210 219 216 213 210 188 178 149 77 57 82 102 78 15 339 21 23 68 59 84 107 168 188 203 184 178 194 174 188 197 199 180 142 155 207 176 51 47 65 60 18 328 328 348 302 291 305 158 165
186 184 185 183 184 185 183 186 185 184 184 183 182 182 183 182 185 192 197 204 210 211 210 207 201 200 203 206 209 218 236 231 234 235 225 227 229 224 214 211 212 210 208 191 177 157 130 95 50 75 70 55 355 359 26 7 73 84 112 118 214 204 204 194 178 193 176 171 177 172 181 158 164 169 138 162 261 62 126 304 345 336 311 1 22 141 153 163
184 185 187 183 185 187 183 182 182 188 188 183 182 183 189 188 186 193 199 205 212 214 211 208 202 200 204 206 204 214 224 221 261 254 232 221 221 221 212 209 205 202 197 166 155 134 124 128 109 92 65 60 358 12 64 24 52 142 124 123 237 212 218 230 186 204 219 157 149 161 177 164 172 159 144 173 180 184 192 216 317 268 256 305 104 146 152 162
186 190 192 187 186 185 181 181 185 190 189 185 184 186 192 191 188 196 200 204 211 214 211 205 202 203 204 204 200 202 183 65 268 229 217 212 212 214 208 204 200 196 184 158 150 125 99 99 96 83 73 64 341 9 100 310 231 144 126 176 229 195 192 232 193 225 240 166 154 146 128 148 203 158 140 147 146 250 243 221 199 205 206 180 181 166 158 163
189 194 195 193 187 183 182 183 188 190 190 188 187 190 193 192 191 195 201 205 209 213 212 202 202 205 203 200 198 196 148 69 251 201 193 202 204 209 206 204 202 195 175 160 155 123 99 90 82 64 66 89 4 36 184 271 106 111 189 195 205 163 135 223 188 224 207 137 123 126 145 173 165 119 149 154 165 228 233 220 208 199 181 169 176 174 167 169
192 197 199 199 188 182 185 185 188 191 191 188 188 193 191 191 191 193 201 205 209 212 211 204 199 202 200 193 192 191 161 163 266 172 183 194 198 207 206 206 204 194 175 166 155 119 104 71 73 86 67 78 130 126 193 298 69 131 256 225 207 196 189 348 126 258 153 122 133 157 169 143 128 240 187 175 202 222 223 229 216 198 175 167 163 165 172 178
195 199 202 204 188 183 188 185 187 190 188 187 190 193 189 190 189 192 200 203 210 210 208 206 196 195 188 176 175 166 169 255 295 163 184 186 195 205 202 206 202 192 181 161 147 122 110 87 103 139 90 78 172 151 172 358 43 102 178 270 193 198 223 2 36 356 107 126 173 168 128 137 165 198 120 207 234 237 245 277 225 172 158 156 156 170 182 186
195 198 203 202 186 183 188 185 186 188 187 189 190 188 187 191 189 191 199 204 209 207 207 202 193 187 174 166 157 88 310 257 247 181 187 182 192 199 198 202 195 191 181 166 162 145 132 123 149 150 101 175 172 134 148 72 40 91 171 208 117 156 305 350 38 44 59 98 133 110 122 212 191 163 133 237 247 250 235 30 99 142 146 159 170 183 189 192
196 198 200 195 183 182 185 184 185 187 189 191 190 185 184 189 189 189 197 204 207 205 204 194 192 179 169 164 119 109 237 231 194 184 185 183 188 191 192 193 190 189 170 173 174 149 159 164 178 172 146 190 146 131 150 110 228 183 141 150 105 6 335 3 37 34 31 23 60 101 90 296 246 173 271 249 250 255 144 91 99 135 148 178 183 188 191 194
196 196 194 189 183 184 186 185 185 187 190 195 192 183 180 188 188 186 192 201 203 201 196 190 189 173 172 156 98 155 240 196 178 180 179 182 183 185 187 187 189 188 167 169 166 150 172 185 176 150 127 136 118 120 147 136 194 154 107 98 76 4 329 30 56 356 7 23 47 130 211 298 331 335 262 266 293 306 137 116 123 151 168 190 192 196 197 200
195 192 191 188 184 186 190 190 189 189 192 196 193 182 182 193 190 187 190 194 197 192 189 189 182 172 172 136 125 193 239 176 180 178 179 183 182 185 186 188 188 188 178 156 174 177 176 168 148 114 115 162 118 79 239 158 110 117 115 88 7 352 0 43 79 340 358 86 106 128 158 304 356 292 225 265 335 353 175 172 159 177 195 199 200 204 202 212
193 191 191 189 186 187 190 195 195 195 196 193 192 184 185 198 192 189 186 184 190 187 183 183 178 172 156 97 167 212 215 179 183 178 180 181 183 186 183 187 187 195 195 170 188 188 156 159 136 101 209 153 123 111 180 104 84 108 100 93 338 359 12 332 59 317 356 120 254 123 102 299 244 234 223 300 357 26 186 228 216 211 220 212 209 213 212 222
191 190 191 190 189 189 192 196 197 199 198 194 196 189 191 201 193 189 181 176 184 181 178 178 176 168 139 110 218 215 204 185 184 181 181 182 185 189 186 188 187 200 206 196 190 172 148 168 145 118 127 111 125 182 116 65 70 110 63 91 14 10 345 305 36 336 116 149 273 138 225 275 248 249 249 313 358 57 263 255 244 236 236 227 215 217 226 227
191 191 192 192 191 192 194 195 199 202 195 197 201 195 199 202 192 187 175 172 179 175 174 172 169 157 126 239 224 206 202 188 186 183 181 187 182 181 184 187 191 192 195 190 172 154 144 158 133 106 99 100 134 116 58 24 32 80 59 57 48 83 269 300 338 142 144 229 18 104 180 267 269 276 275 298 340 155 224 249 242 247 245 238 226 221 235 231
190 192 192 193 192 192 193 193 197 198 193 199 204 203 210 201 188 180 170 170 170 167 165 162 164 144 77 276 254 200 199 188 187 184 179 181 170 170 178 172 166 148 149 158 148 134 132 135 108 87 97 37 85 92 48 16 21 44 100 325 346 168 259 306 293 159 154 272 39 92 202 269 278 282 280 308 36 159 215 252 259 263 257 248 239 229 239 242
189 191 193 192 193 193 192 192 193 191 189 193 198 205 208 190 175 169 169 164 156 156 148 148 171 147 98 256 275 172 191 185 186 184 177 176 173 169 157 144 132 128 125 125 127 117 105 100 71 86 118 69 89 101 69 39 357 1 102 189 252 171 266 311 300 236 163 147 23 78 212 265 287 280 280 317 57 107 228 270 273 264 260 254 244 237 240 250
188 189 192 191 193 194 191 193 192 183 183 186 189 195 185 160 156 158 154 140 134 133 119 136 178 160 76 179 119 210 189 181 183 180 176 180 182 165 146 128 109 115 105 104 116 95 57 51 45 78 66 72 110 102 89 71 269 294 64 136 221 187 201 285 294 291 51 99 272 27 232 250 271 285 289 298 47 32 309 279 274 264 259 254 248 248 245 246
188 187 190 190 193 194 193 195 190 181 182 180 167 155 137 118 119 131 132 126 114 98 78 93 151 159 253 210 188 215 174 168 172 171 172 173 171 161 144 115 105 102 79 71 79 52 27 26 63 104 41 60 129 115 136 204 202 191 177 149 206 213 201 247 266 246 76 81 221 219 268 262 269 280 286 285 322 330 285 274 277 272 263 258 248 244 244 245
188 188 187 188 191 192 196 196 187 180 175 159 140 129 115 100 99 109 126 126 114 106 134 212 160 163 224 213 192 131 137 154 159 162 161 151 151 141 106 90 95 95 93 89 49 42 71 51 69 121 139 171 190 173 175 195 172 168 175 148 156 179 229 241 251 265 160 120 223 219 229 262 271 276 280 283 302 305 280 283 280 272 267 262 254 245 242 243
189 189 186 186 189 193 197 193 184 178 167 151 141 128 111 115 106 88 123 136 170 159 151 233 199 168 279 246 131 117 123 133 143 159 157 156 149 126 74 49 57 63 108 154 156 70 93 126 179 185 190 196 196 178 146 145 139 136 132 115 145 175 240 258 272 304 347 142 251 236 235 262 268 273 272 276 302 298 274 274 266 261 260 257 255 253 247 242
190 188 186 186 188 193 194 189 181 175 168 158 151 136 155 171 139 162 188 297 244 180 129 276 214 131 349 112 143 137 120 98 43 154 158 167 150 144 64 28 88 87 240 170 145 45 84 155 212 210 195 184 163 145 115 97 90 100 132 131 141 185 225 258 251 317 354 150 269 359 311 266 258 267 271 274 282 265 251 253 256 254 251 252 252 253 254 256
188 187 186 183 186 191 190 189 180 173 171 170 168 174 237 229 128 154 148 127 242 194 127 274 66 32 349 134 168 156 72 100 211 257 176 153 133 165 187 65 129 166 279 117 113 70 86 215 230 209 147 102 97 120 105 90 89 87 115 133 152 212 241 287 298 331 11 84 272 352 336 274 256 257 263 259 255 251 243 241 249 255 255 252 247 248 256 264
185 185 183 181 181 180 183 188 175 171 178 182 189 200 224 251 136 150 134 105 207 188 97 169 145 115 32 128 193 162 76 143 181 234 201 147 132 173 134 107 141 142 137 162 146 143 169 250 238 166 131 113 96 88 96 89 82 89 109 132 174 239 167 249 297 328 11 72 270 337 317 282 273 269 265 258 256 266 266 254 251 252 253 255 251 246 245 248
182 182 180 176 173 173 178 176 168 177 187 195 208 198 168 145 158 160 100 85 161 207 222 206 169 166 151 157 181 158 121 156 172 199 187 154 139 150 147 139 133 130 179 180 151 160 202 259 178 122 126 125 118 124 125 128 133 77 143 143 164 197 169 186 280 333 0 19 30 15 324 292 310 325 285 279 302 288 275 281 273 252 245 257 264 253 241 241
180 179 176 170 168 171 164 161 172 185 186 203 215 197 159 139 166 183 75 81 170 297 302 233 170 197 178 140 163 165 136 173 213 200 180 163 147 133 157 141 130 166 190 146 135 174 226 263 128 121 108 99 118 163 181 159 162 268 220 178 172 170 162 161 53 53 31 351 350 27 343 287 314 321 275 287 330 303 287 298 282 267 248 244 254 255 247 246
178 176 173 167 165 164 156 162 186 182 178 213 208 187 173 159 166 196 93 64 278 264 173 181 147 184 179 146 156 138 103 251 269 148 151 163 152 110 138 137 79 172 176 139 135 188 222 350 94 129 127 105 113 174 213 160 131 221 235 174 147 131 130 139 114 88 106 258 310 48 127 263 307 292 260 293 330 302 294 295 280 275 266 237 236 251 249 248
178 175 169 167 167 163 156 165 178 169 171 224 201 180 178 167 166 203 80 48 276 197 142 188 31 166 173 168 153 131 159 225 109 80 120 148 164 53 123 180 116 150 172 130 142 227 167 79 66 97 104 108 127 187 210 148 127 220 231 130 121 121 133 142 117 106 190 239 325 15 118 229 292 268 262 319 327 300 296 289 277 277 288 266 241 245 248 248
177 173 169 172 172 169 164 158 166 171 184 192 177 170 164 160 166 157 90 95 248 140 139 207 133 147 150 110 124 117 208 205 127 189 338 98 154 43 102 196 164 153 158 129 181 255 145 149 160 126 101 129 181 210 189 136 119 235 201 119 117 122 128 121 100 95 52 356 312 308 136 188 269 274 303 339 306 290 282 273 274 287 301 282 258 253 253 255
177 173 172 172 169 172 177 169 171 181 194 163 158 165 156 155 158 85 92 185 176 83 145 152 138 145 109 107 109 68 29 53 130 222 356 88 131 45 124 193 142 128 67 101 172 238 54 191 192 141 130 181 198 220 180 137 112 187 138 97 76 76 79 78 90 97 49 2 253 237 189 196 266 281 304 324 276 264 263 268 276 286 291 277 266 265 263 267
177 173 173 169 168 175 174 175 181 179 183 168 156 159 151 142 137 117 180 218 135 99 215 147 180 164 128 141 150 9 92 47 354 85 34 84 31 29 106 152 100 112 43 38 104 240 314 278 211 121 150 185 146 92 92 100 127 137 108 75 60 39 36 48 54 80 66 293 256 240 215 177 273 276 258 232 227 220 242 287 294 300 308 296 277 272 270 279
175 170 172 168 170 179 168 175 188 174 163 169 156 150 143 99 85 151 193 216 117 107 101 138 191 139 149 163 172 150 99 33 303 135 131 156 56 47 118 126 78 85 51 35 40 319 348 26 291 276 150 133 100 72 31 24 85 107 86 86 88 9 11 25 359 44 128 254 261 266 246 149 227 258 250 247 252 227 217 266 285 297 309 305 310 326 312 302
170 167 171 171 173 181 173 152 184 178 166 166 155 135 123 100 176 196 203 186 152 186 177 175 198 168 165 161 143 148 126 75 211 150 147 151 152 175 174 171 153 103 165 191 167 327 355 54 293 319 243 147 110 82 40 8 24 76 92 95 94 2 7 353 309 335 222 247 269 286 248 192 235 247 254 264 269 246 218 228 252 268 285 300 335 352 335 324
168 167 170 175 179 183 184 153 176 183 173 163 149 76 93 135 199 209 210 189 190 194 157 146 147 145 150 147 150 161 129 138 187 149 139 138 159 208 245 197 152 123 183 181 130 139 280 304 308 54 283 205 142 129 130 198 55 121 134 124 124 124 97 260 267 278 259 260 293 294 254 260 276 265 246 250 258 251 222 229 241 248 264 283 312 325 314 317
165 169 172 177 181 186 192 175 173 179 168 158 140 89 132 179 206 201 202 208 212 62 87 116 113 121 144 155 183 173 128 179 177 129 123 132 150 201 233 223 165 102 114 148 153 169 186 270 225 170 217 194 172 173 154 147 150 172 157 131 146 157 157 208 217 209 246 278 308 299 246 209 233 285 255 247 267 288 262 252 255 256 259 270 295 299 290 294
166 170 174 178 187 192 188 151 163 174 167 147 127 148 175 200 210 198 194 191 174 66 49 87 113 128 162 130 215 190 156 180 176 128 151 170 175 194 198 203 191 133 130 160 202 171 165 247 257 275 252 164 171 213 130 114 113 234 121 106 165 184 143 140 185 176 177 324 310 262 235 217 214 276 279 268 288 295 280 277 275 272 282 292 285 276 279 293
167 169 174 181 196 199 191 155 154 172 169 131 138 182 197 206 205 198 181 153 150 130 105 84 89 130 172 140 184 211 174 116 156 151 186 199 210 200 193 203 191 176 165 159 177 172 154 260 296 339 338 139 156 210 120 117 164 167 134 173 209 170 114 113 228 40 77 262 277 220 249 287 322 287 285 293 299 305 302 292 282 281 299 304 283 274 285 279
156 157 164 179 197 202 197 177 153 167 164 128 173 199 204 190 163 173 162 127 139 137 124 130 150 150 169 170 189 199 179 118 152 169 192 198 236 202 195 228 194 183 189 155 164 198 154 217 306 30 126 289 297 124 57 31 118 129 180 206 185 104 85 109 194 355 43 245 276 268 245 281 315 274 310 338 285 289 291 286 292 296 296 290 284 251 244 258
134 132 130 172 197 205 200 184 160 157 129 131 200 215 200 143 157 130 133 124 132 132 133 160 167 146 168 179 187 185 172 167 174 181 178 188 245 204 176 206 200 184 198 165 137 221 138 147 306 15 172 293 350 101 82 357 63 127 182 175 115 137 185 94 150 187 129 236 277 293 274 261 212 234 308 285 221 243 264 274 286 283 269 270 273 190 229 272
110 104 68 157 188 203 199 188 164 128 123 177 208 220 190 124 257 302 230 137 121 123 155 182 162 128 172 173 163 170 181 180 172 178 182 183 236 221 175 189 196 181 191 161 147 202 132 149 263 325 271 303 15 129 196 210 41 53 92 100 81 141 170 158 156 167 170 198 252 304 318 269 226 214 204 217 218 216 235 255 269 267 252 252 266 229 258 276
82 82 50 151 163 185 185 176 142 126 175 199 204 207 104 89 280 288 288 184 122 116 169 186 163 146 166 165 155 168 183 175 167 182 204 187 214 247 201 189 176 171 173 137 135 173 126 161 220 303 336 205 195 221 188 164 144 111 127 158 182 83 106 163 179 127 140 163 192 271 290 265 248 207 191 211 220 210 215 226 241 254 254 256 273 246 244 261
55 71 2 171 165 171 167 156 136 181 193 221 180 134 96 129 147 307 323 7 113 78 145 154 155 153 153 156 173 176 163 155 171 184 212 204 204 232 219 183 151 139 133 124 174 184 153 161 171 156 265 203 228 265 180 172 176 169 176 188 185 165 130 159 237 226 124 155 174 183 263 267 250 204 197 206 214 216 215 216 232 254 277 299 305 252 237 251
80 100 275 186 169 164 152 126 334 191 190 216 180 123 125 107 91 347 326 22 71 45 55 99 119 144 156 163 169 167 157 159 181 184 206 218 207 213 224 173 145 146 148 165 199 186 122 113 128 164 217 217 243 283 212 190 180 163 200 195 177 178 153 155 212 223 132 183 169 125 266 274 252 192 206 221 231 238 238 232 248 276 293 293 294 286 259 238
131 147 261 184 174 162 141 113 313 111 202 215 137 70 88 96 96 116 327 21 61 56 41 71 112 129 166 166 146 164 171 171 190 196 208 220 217 218 202 163 149 154 159 169 188 173 104 114 136 214 299 307 311 331 11 59 96 199 236 184 156 190 159 139 179 178 152 200 173 111 258 267 285 303 246 266 279 279 279 242 236 264 288 285 294 297 247 219
139 124 348 192 179 168 157 182 167 170 184 108 110 135 54 68 148 146 145 219 144 116 97 111 157 103 157 151 133 172 185 178 198 210 208 206 228 249 168 165 162 162 175 191 183 181 193 166 135 124 358 337 332 331 320 266 188 212 233 169 148 136 102 93 116 118 198 222 177 165 240 254 300 332 299 307 320 311 309 273 226 222 234 75 243 243 224 209
113 121 346 230 182 169 174 169 144 151 143 126 158 178 166 153 190 162 148 139 137 140 128 150 149 86 108 116 86 158 184 164 181 206 207 208 249 323 40 178 181 180 193 202 148 166 187 183 150 158 189 210 212 216 220 198 172 219 214 176 172 147 138 161 162 125 231 233 172 183 239 253 306 330 291 304 323 313 307 287 259 221 176 198 222 234 239 289
128 155 163 2 352 177 181 152 139 151 152 147 160 185 190 198 247 348 140 158 188 127 90 57 133 87 75 118 112 156 195 171 75 169 199 213 226 304 340 250 195 193 154 108 134 141 142 189 194 195 206 211 213 213 166 132 147 208 213 194 188 179 174 179 153 173 220 230 210 222 237 249 257 248 264 281 269 223 199 209 259 255 233 230 235 250 265 274
130 162 165 155 114 203 194 172 167 169 168 169 167 168 188 197 200 350 247 217 192 132 85 33 148 142 145 154 145 168 193 159 86 146 188 208 226 294 322 12 124 284 24 126 157 130 106 217 217 210 224 230 224 212 166 152 172 200 208 200 190 188 184 184 197 215 217 219 241 236 221 241 253 233 221 256 250 233 241 224 222 244 247 246 259 285 298 308
144 167 190 134 152 196 200 186 179 173 161 170 174 154 171 187 181 180 205 189 122 147 150 258 215 185 175 158 154 170 166 149 189 195 153 149 184 20 6 37 77 34 59 125 180 132 137 219 218 198 228 243 235 189 171 186 192 199 208 204 193 189 188 194 212 222 215 208 239 241 205 219 248 239 215 229 228 225 234 210 197 225 250 265 283 295 292 289
44 311 296 354 38 203 196 153 162 170 167 170 180 166 170 184 189 190 148 113 144 215 192 215 221 193 184 169 140 154 176 177 200 208 165 124 132 114 107 169 13 43 111 136 199 154 155 225 218 186 219 246 240 197 176 195 204 210 217 208 196 194 195 201 214 222 222 220 235 248 236 231 245 240 220 225 224 226 234 194 190 227 242 254 267 269 266 265
125 239 303 21 35 1 25 136 157 171 174 174 192 194 180 186 189 185 147 148 170 172 195 215 211 174 188 200 172 191 208 180 161 182 168 136 133 164 173 186 168 49 71 139 177 190 192 234 214 162 197 249 243 210 187 197 205 216 230 225 210 204 206 213 219 221 226 230 237 248 255 255 251 234 224 234 223 223 250 257 249 253 256 257 262 266 269 276
149 18 71 108 112 200 79 127 156 170 181 188 196 186 185 196 190 175 174 193 179 163 187 206 193 137 166 200 209 228 226 177 131 152 164 147 154 176 163 156 153 103 56 107 124 135 186 227 348 122 183 245 240 194 179 190 207 233 247 237 219 211 213 218 220 219 219 222 233 241 249 257 252 206 211 236 204 193 234 241 241 250 253 252 255 259 263 269
134 355 29 111 99 227 175 112 157 181 192 195 190 175 178 189 179 168 182 230 204 187 192 190 167 133 153 199 218 226 214 177 152 151 157 135 111 130 111 102 127 123 109 129 108 116 154 180 217 151 190 248 246 160 142 141 170 244 241 229 221 217 217 218 221 227 222 214 218 224 231 247 248 161 203 235 194 196 227 228 223 233 237 239 241 247 257 266